Location: Tel Aviv
(32.0670°N, 34.7670°E)
Time: 07:57:15
(UTC+02:00)

Vanguard 1 Rocket - All Passes

Search period start: 29 November 2023 00:00
Search period end: 09 December 2023 00:00
Orbit: 656 x 4218 km, 34.3° (Epoch: 28 November)

Date Brightness Start Highest point End Pass type
(mag) Time Alt. Az. Time Alt. Az. Time Alt. Az.
29 Nov - 01:54:51 10° S 02:10:22 21° SE 02:22:20 10° ESE visible
29 Nov - 04:20:01 10° SW 04:40:50 50° SSE 04:52:25 10° E visible
29 Nov - 06:52:35 10° WSW 07:09:20 87° SSE 07:17:29 10° ENE daylight
29 Nov - 09:25:52 10° W 09:36:06 78° N 09:41:39 10° E daylight
29 Nov - 11:55:25 10° W 12:01:05 42° SSW 12:05:19 10° SE daylight
30 Nov - 00:48:32 10° SSE 00:55:38 12° SE 01:02:10 10° ESE visible
30 Nov - 03:05:54 10° SSW 03:26:49 38° SSE 03:40:05 10° E visible
30 Nov - 05:36:25 10° WSW 05:56:24 73° SSE 06:06:24 10° ENE visible
30 Nov - 08:10:36 10° W 08:24:05 78° N 08:30:49 10° E daylight
30 Nov - 10:42:08 10° WNW 10:50:01 74° SSW 10:54:51 10° ESE daylight
30 Nov - 13:11:57 10° WSW 13:13:59 12° SW 13:15:55 10° SSW daylight
01 Dec - 01:53:23 10° S 02:12:23 28° SE 02:26:22 10° E visible
01 Dec - 04:20:42 10° SW 04:42:52 60° SSE 04:54:57 10° ENE visible
01 Dec - 06:54:24 10° WSW 07:11:34 86° NNW 07:19:54 10° ENE daylight
01 Dec - 09:27:59 10° W 09:38:30 84° N 09:44:08 10° E daylight
01 Dec - 11:57:53 10° W 12:03:11 30° SW 12:07:11 10° SSE daylight
02 Dec - 00:43:34 10° S 00:57:42 18° SE 01:09:49 10° ESE visible
02 Dec - 03:06:00 10° SSW 03:28:45 47° SSE 03:42:51 10° E visible
02 Dec - 05:37:51 10° WSW 05:58:32 82° SSE 06:08:48 10° ENE visible
02 Dec - 08:12:40 10° W 08:26:27 78° N 08:33:18 10° E daylight
02 Dec - 10:44:17 10° WNW 10:52:15 58° SSW 10:57:07 10° SE daylight
03 Dec - 01:52:44 10° SSW 02:14:13 35° SE 02:29:40 10° E visible
03 Dec - 04:21:40 10° SW 04:44:52 69° SSE 04:57:22 10° ENE visible
03 Dec - 06:56:20 10° W 07:13:50 82° N 07:22:20 10° E daylight
03 Dec - 09:30:02 10° WNW 09:40:50 86° SSW 09:46:35 10° ESE daylight
03 Dec - 12:00:35 10° W 12:05:09 21° SW 12:08:43 10° S daylight
04 Dec - 00:41:29 10° S 00:59:31 24° SE 01:14:33 10° E visible
04 Dec - 03:06:28 10° SW 03:30:35 56° SSE 03:45:23 10° ENE visible
04 Dec - 05:39:29 10° WSW 06:00:39 89° SSE 06:11:11 10° ENE visible
04 Dec - 08:14:42 10° W 08:28:48 82° N 08:35:47 10° E daylight
04 Dec - 10:46:30 10° WNW 10:54:21 44° SSW 10:59:12 10° SE daylight
04 Dec - 23:34:27 10° SSE 23:44:49 14° SE 23:54:39 10° ESE visible
05 Dec - 01:52:38 10° SSW 02:15:55 43° SE 02:32:32 10° E visible
05 Dec - 04:22:54 10° WSW 04:46:49 77° SSE 04:59:43 10° ENE visible
05 Dec - 06:58:17 10° W 07:16:07 80° N 07:24:47 10° E daylight
05 Dec - 09:32:03 10° WNW 09:43:04 74° SSW 09:48:55 10° ESE daylight
05 Dec - 12:03:49 10° WSW 12:06:58 14° SW 12:09:37 10° SSW daylight
06 Dec - 00:40:32 10° SSW 01:01:07 31° SE 01:18:12 10° E visible
06 Dec - 03:07:16 10° SW 03:32:23 65° SSE 03:47:46 10° ENE visible
06 Dec - 05:41:14 10° WSW 06:02:47 86° NNW 06:13:34 10° E visible
06 Dec - 08:16:40 10° W 08:31:06 87° NNE 08:38:13 10° ESE daylight
06 Dec - 10:48:46 10° W 10:56:18 33° SW 11:01:05 10° SSE daylight
06 Dec - 23:31:02 10° S 23:46:28 20° SE 00:00:59 10° E visible
07 Dec - 01:52:58 10° SW 02:17:31 51° SSE 02:35:05 10° ENE visible
07 Dec - 04:24:21 10° WSW 04:48:47 85° SSE 05:02:03 10° ENE visible
07 Dec - 07:00:14 10° W 07:18:25 81° N 07:27:14 10° E daylight
07 Dec - 09:34:02 10° WNW 09:45:11 61° SSW 09:51:08 10° SE daylight
08 Dec - 00:40:15 10° SSW 01:02:35 38° SE 01:21:13 10° E visible
08 Dec - 03:08:20 10° SW 03:34:08 73° SSE 03:50:04 10° ENE visible
08 Dec - 05:43:05 10° W 06:04:58 83° N 06:15:57 10° E visible
08 Dec - 08:18:35 10° WNW 08:33:20 84° SSW 08:40:36 10° ESE daylight
08 Dec - 10:51:16 10° W 10:58:04 25° SW 11:02:39 10° S daylight
